COSMOS 2601

导读

COSMOS 2601(NORAD编号67675)是俄罗斯联邦隶属于“宇宙”(COSMOS/Kosmos)系列的军用卫星。“宇宙”系列是苏联/俄罗斯持续发展的大规模卫星家族,自上世纪60年代起已发射超过2600颗,涵盖军事侦察、通信、导航等多种军用任务,多数已退役成为空间碎片。 该卫星作为近年发射的编内成员,目前由NORAD完成轨道编目,运行于近地轨道(LEO),承担俄罗斯军方既定航天任务,延续了“宇宙”系列服务俄罗斯国防航天需求的传统。

Basic Information
目录编号:
67675
目录名称:
COSMOS 2601
国际标识:
2026-023B
轨道中心:
EARTH
卫星名称:
COSMOS 2601
卫星全名:
COSMOS 2601
卫星状态:
在轨 (已飞行211 天)
发射日期:
2026-02-05 UTC
国别 :
俄罗斯(独联体) (CIS)
星等 :
--
Orbit Information
数据来源 国际轨道数据
星历时间: 2026-09-03T11:47:34+0800
1天前
查看轨道信息
半长轴: 6864.197km
偏心率: 0.0015546
轨道倾角: 96.617°
近地点辐角 212.868°
升交点赤经 298.777°
平近点角 147.159°
近地点: 475.388km
远地点: 496.732km
周期: 94.329分钟
每日圈数: 15.265752
Detailed Information
使用方式:
暂无
2D Orbit Map
3D Orbit Map
Orbit Altitude Analysis Chart
Orbit Inclination Analysis Chart
Orbit Comprehensive Analysis Chart
View Comprehensive Chart
Conjunction Data List
Event ID Objects TCA Miss Dist (km) Collision Risk Probability Collision Risk Index (CRI) Action
CDM_260905-112905-788406-767521
2026-09-05T
11:29:39+0000
0.769 km
远距离
4.448505E-5 中风险 0.68
CDM_260905-174805-807206-767521
2026-09-05T
17:48:38+0000
0.992 km
远距离
2.680684E-5 中风险 0.64
CDM_260904-084506-220306-767522
2026-09-04T
08:45:54+0000
0.897 km
远距离
2.599508E-5 中风险 0.63
CDM_260903-122205-807206-767524
2026-09-03T
12:22:26+0000
1.376 km
极远距离
8.719536E-6 低风险 0.54
CDM_260905-062803-350506-767522
2026-09-05T
06:28:09+0000
2.079 km
极远距离
2.641892E-6 低风险 0.43
CDM_260902-020106-680806-767521
2026-09-02T
02:01:25+0000
2.071 km
极远距离
2.27795E-6 低风险 0.42
CDM_260830-174505-212606-767521
2026-08-30T
17:45:57+0000
2.151 km
极远距离
1.841133E-6 低风险 0.4
CDM_260905-100206-767506-799821
2026-09-05T
10:02:02+0000
2.535 km
极远距离
1.678253E-6 低风险 0.39
CDM_260904-212006-193006-767521
2026-09-04T
21:20:28+0000
2.256 km
极远距离
1.532389E-6 低风险 0.39
CDM_260904-163806-767506-784821
2026-09-04T
16:38:38+0000
2.684 km
极远距离
1.085791E-6 低风险 0.36